Back to catalog

ONEWEB-0372

AliveCommunicationsPO
NORAD 49298·PAYLOAD·🇬🇧 United Kingdom

Launched Oct 14, 2021 from Vostochny Cosmodrome

Loading…

Next Passes (next 24 hours)

TLE

FreshSource: CelesTrak SupGP

Epoch: Sep 14, 2026, 17:07 UTC

1 49298C 21090V   26257.71333333 -.00000932  00000+0 -22961-2 0  2576
2 49298  87.9135 256.5837 0002042  89.6847 301.9867 13.20768367    11

Track ONEWEB-0372 in real time with AllMySat

Download on the App Store